Location: Saint-Hippolyte
(43.6394°N, 4.7559°E)
Time: 16:07:29
(UTC+00:00)

Cosmos 1850 Rocket - Pass Details

Date: 24 October 2020
Orbit: 753 x 786 km, 74.0° (Epoch: 23 November)

Event Time Altitude Azimuth Distance (km) Brightness Sun altitude
Rises 17:00:42 0° 341° (NNW) 3,259 7.3 -4.0°
Reaches altitude 10° 17:03:06 10° 344° (NNW) 2,333 6.6 -4.4°
Maximum altitude 17:08:23 68° 68° (ENE) 841 4.0 -5.3°
Drops below altitude 10° 17:13:40 10° 151° (SSE) 2,334 6.3 -6.3°
Sets 17:16:04 0° 154° (SSE) 3,261 7.1 -6.7°
